Theta_e
284 284 286 289 288 288 288 290 291 293 293 294 294 294 295 297 300 302 305 307 308 309 310 310 310 311 312 313 313 313 312 312 313 312 313 311 310 309 309 309 309 306 304 304 303 303 302 302 301 300 299 298 297 295 295 295 295 294 293 292 292 291
283 283 285 287 287 287 288 289 291 292 293 293 293 294 295 296 297 299 302 304 306 306 306 308 309 309 310 311 311 311 311 311 312 312 311 312 309 309 309 308 308 306 303 303 304 303 302 302 301 300 299 298 297 296 296 294 294 294 293 291 291 291
282 283 285 287 286 286 287 289 290 291 292 292 293 293 293 294 295 296 299 302 303 303 304 306 306 308 310 310 311 311 311 311 310 312 312 310 310 309 308 308 307 307 305 303 302 302 301 300 299 299 298 297 296 295 294 293 293 293 293 292 290 290
283 283 285 286 286 286 286 288 290 291 291 292 292 293 292 293 294 295 296 298 301 302 303 305 306 306 307 308 310 310 310 309 310 311 310 309 309 308 308 307 307 306 305 302 301 301 301 300 299 298 298 297 296 295 295 293 293 293 292 292 291 290
282 283 284 285 286 285 286 288 289 290 291 291 292 292 292 293 293 294 295 296 297 299 302 303 304 305 306 306 308 309 309 309 308 308 309 309 308 306 307 307 307 305 303 302 301 300 300 299 299 298 298 298 296 295 294 294 293 293 292 291 291 290
282 283 283 285 286 286 286 288 289 290 291 291 291 291 291 292 293 294 294 294 294 296 298 301 303 304 305 305 306 307 308 309 308 306 307 308 306 303 304 305 304 304 303 301 300 298 299 299 298 297 298 298 298 296 294 293 294 294 293 292 292 291
282 283 283 284 286 286 286 287 289 289 290 291 291 291 292 292 292 293 294 294 293 293 295 297 301 302 304 305 306 306 306 305 305 304 304 305 305 303 300 299 301 301 302 301 300 299 298 298 298 298 297 298 298 297 296 294 294 294 293 293 292 291
283 282 283 284 285 286 286 287 288 289 290 290 291 291 291 292 292 292 293 293 293 292 293 295 299 302 303 304 304 304 305 304 303 302 302 303 303 302 302 300 299 299 300 300 300 300 299 298 298 299 298 298 297 297 296 295 294 294 294 293 292 292
282 283 283 284 285 286 286 286 287 288 289 290 291 291 291 291 292 292 292 293 292 292 292 293 295 300 302 302 302 303 303 303 302 302 301 300 301 300 299 301 300 298 299 299 299 299 298 298 298 298 298 298 297 297 296 295 294 295 294 293 292 292
283 283 283 283 285 286 286 286 287 287 288 289 290 290 291 291 291 291 292 292 292 292 292 292 293 296 300 302 302 301 301 301 300 300 299 298 300 300 299 298 299 300 299 299 298 298 298 298 297 298 298 297 296 295 295 294 293 292 292 292 292 291
283 283 283 283 284 285 286 286 286 287 288 289 289 290 290 291 291 291 291 291 292 291 292 292 292 294 297 298 300 299 299 300 299 298 297 295 296 299 300 300 298 297 297 298 298 298 297 297 297 297 297 296 294 294 293 293 292 292 291 291 291 291
283 283 283 283 284 285 285 286 286 287 288 288 289 289 290 290 290 290 290 290 291 292 291 291 291 292 294 296 296 298 298 298 297 296 294 294 295 295 295 297 298 297 297 297 297 297 297 297 299 296 296 297 296 294 294 293 292 291 291 290 289 289
283 283 283 283 284 284 285 286 286 287 287 288 288 289 289 289 289 289 289 290 291 291 291 291 290 291 292 294 294 295 295 296 296 295 293 293 292 293 292 293 295 297 297 297 296 295 296 297 298 296 298 298 297 296 294 293 292 291 291 290 289 289
283 283 284 284 285 285 285 286 286 286 287 287 288 288 289 289 289 289 289 290 290 290 290 290 290 290 290 292 293 293 293 294 294 294 293 292 292 292 292 292 292 294 296 297 296 296 296 297 296 297 297 298 298 296 294 294 293 291 291 291 290 290
284 284 284 285 285 286 286 286 286 286 287 287 288 288 288 288 288 288 289 289 290 290 289 289 289 289 290 291 292 292 292 292 292 293 292 292 293 293 292 292 293 292 292 294 294 294 295 295 296 297 297 297 297 297 295 294 293 292 291 290 290 290
279 281 281 282 283 284 286 286 286 287 287 287 287 287 287 287 288 288 288 289 289 289 289 289 289 289 289 290 291 291 292 292 292 292 293 292 292 292 292 292 292 292 292 292 292 293 294 294 295 296 297 297 297 297 295 293 292 292 291 290 290 290
275 275 277 278 280 281 283 284 284 284 284 285 286 286 287 287 287 288 288 288 289 289 288 289 289 289 289 290 290 291 291 291 292 291 292 292 292 292 292 292 292 291 291 292 293 293 293 293 295 296 296 296 297 297 296 293 292 292 291 290 290 290
272 273 274 276 278 278 280 280 281 281 282 284 284 285 285 286 287 287 288 288 289 289 288 288 289 289 289 289 290 290 291 291 291 291 291 292 292 293 293 292 292 291 291 291 292 292 292 293 295 295 295 296 296 297 294 292 291 291 291 290 289 289
270 270 271 272 272 273 275 278 280 280 281 282 283 284 285 285 286 287 287 288 289 289 288 288 289 289 289 289 289 290 290 291 291 291 292 291 291 291 292 292 292 292 291 290 290 291 292 292 293 295 295 295 296 295 293 291 291 291 290 289 289 289
270 270 270 270 270 271 273 275 277 279 280 281 282 282 283 285 286 287 287 288 288 289 288 288 289 289 289 289 289 290 290 291 291 291 292 291 291 291 291 292 292 292 292 291 291 291 292 292 292 294 295 295 296 294 292 292 291 290 290 289 289 289
269 270 270 270 270 271 272 273 274 275 276 278 280 281 282 284 285 286 287 288 289 289 288 288 288 289 289 289 289 290 290 290 291 291 291 292 292 292 292 292 292 291 291 291 291 291 291 292 291 293 294 294 295 293 292 292 291 290 290 289 288 288
270 270 269 270 270 271 272 273 273 274 275 277 278 280 281 283 285 286 287 288 288 288 288 288 288 288 289 289 289 290 291 291 291 291 291 291 292 292 292 291 292 290 291 291 290 290 291 291 290 290 294 294 294 294 292 292 291 290 289 288 288 287
270 270 270 271 271 272 272 272 272 272 274 276 277 279 280 282 284 286 286 287 287 288 288 288 288 288 288 289 289 290 290 291 291 290 290 290 291 291 291 291 291 291 291 290 290 290 290 291 290 289 293 294 294 294 293 291 291 291 290 288 287 287
269 270 271 271 272 272 273 273 272 272 273 274 275 276 278 280 282 284 285 286 286 287 288 288 288 288 289 289 289 289 289 290 290 291 290 291 291 290 290 290 290 291 291 290 289 290 289 290 289 289 292 293 294 294 293 292 291 291 290 288 287 287
269 270 270 272 272 272 272 272 271 271 273 273 276 278 279 280 282 283 284 285 286 287 287 288 288 288 288 289 289 289 290 290 289 289 290 290 289 289 289 289 290 290 290 290 289 290 289 289 289 290 290 292 293 294 293 293 292 292 290 289 287 287
269 270 271 271 272 272 272 272 271 272 273 274 277 280 282 282 283 283 284 285 286 287 287 287 287 288 288 289 289 289 290 290 289 289 290 290 290 290 289 290 290 290 289 289 288 289 289 289 289 289 290 291 293 293 293 293 293 292 290 290 289 288
269 269 270 271 271 272 272 272 271 272 272 275 278 279 280 281 282 282 283 284 286 287 287 287 287 288 288 288 289 289 289 289 289 289 289 289 290 290 289 289 289 289 289 289 289 288 288 288 288 289 289 290 291 293 293 293 293 292 292 289 289 288
269 269 269 270 271 272 272 272 272 272 274 278 280 280 281 281 282 283 284 285 286 287 287 287 287 287 288 288 289 289 290 290 289 289 289 289 289 289 289 289 289 289 289 289 289 288 288 288 287 288 289 289 290 291 292 292 292 291 291 289 289 288
266 267 268 269 271 272 272 272 273 274 276 279 282 283 283 283 283 284 285 286 286 287 287 287 287 288 288 288 289 289 290 290 290 289 289 289 289 289 289 289 289 288 289 289 289 288 288 287 287 287 288 288 289 290 290 291 290 290 289 288 285 287
264 264 265 266 268 269 271 273 274 277 278 281 283 284 284 284 285 285 286 286 287 287 288 287 286 287 288 288 288 289 290 290 290 290 289 289 289 289 289 289 289 288 289 289 289 288 287 287 287 287 287 287 288 289 290 290 289 289 288 287 285 286
263 264 264 265 267 267 268 269 271 272 274 275 277 279 280 282 285 286 286 287 287 287 288 288 288 288 288 288 288 289 290 290 290 290 290 290 291 291 290 290 290 289 290 290 289 288 287 287 286 287 289 288 289 289 289 289 289 289 288 288 287 285
263 263 264 264 265 266 266 267 268 270 271 272 273 275 275 277 280 283 285 286 287 288 288 288 288 288 288 288 288 288 289 289 291 291 290 290 290 291 292 292 290 290 290 290 290 290 289 288 288 289 290 290 290 291 291 291 291 290 289 288 288 286
263 263 263 263 264 264 265 265 266 268 270 270 271 272 273 275 277 280 282 285 286 287 288 288 288 288 288 288 288 288 288 288 289 291 291 291 290 290 291 291 292 292 292 290 290 290 291 291 291 290 290 290 290 291 291 291 291 290 289 289 286 285
262 262 262 262 263 263 263 264 265 267 268 269 270 271 272 274 276 278 280 283 285 287 287 288 288 287 287 287 288 288 288 288 287 288 290 290 290 290 290 291 291 291 291 291 290 289 289 290 290 290 289 290 290 290 290 290 290 290 289 289 288 285
261 262 262 261 262 262 262 263 264 266 267 268 269 271 272 274 276 278 280 282 285 286 286 287 287 287 287 287 287 287 287 287 287 287 287 288 289 289 290 290 291 291 290 291 291 290 289 289 289 289 289 289 290 290 290 290 290 290 289 289 286 285
261 261 261 261 261 261 261 262 263 264 265 267 269 271 273 277 279 280 281 283 285 286 286 286 286 286 286 287 287 287 287 287 287 287 287 286 285 286 288 289 290 290 290 290 290 290 289 289 289 289 289 289 289 290 290 290 288 290 290 288 286 286
261 260 260 261 261 260 261 261 262 263 265 266 267 270 274 278 282 283 284 284 285 285 285 285 285 285 286 285 286 286 286 286 286 286 286 286 285 285 285 285 286 289 289 288 289 289 289 289 289 289 289 289 290 290 290 290 287 286 286 286 286 286
260 259 260 260 259 260 260 260 262 263 264 264 266 270 274 276 279 283 284 285 285 285 285 285 285 285 285 285 285 286 286 285 285 285 285 285 285 285 285 285 285 286 287 288 288 289 289 288 289 289 289 289 290 290 290 285 285 285 284 284 285 285
Wind_Speed
13 15 17 15 12 12 11 10 12 12 13 15 15 16 17 18 18 18 13 12 11 11 12 13 14 15 16 16 15 13 14 15 13 14 14 12 12 14 14 14 15 14 14 15 14 14 15 13 12 13 12 13 11 10 11 9 10 11 12 10 10 9
12 13 15 15 12 12 12 11 11 12 12 13 16 17 17 18 20 20 17 13 11 10 8 9 10 14 13 14 15 15 16 15 14 13 12 15 12 12 15 15 15 15 15 16 16 15 14 15 14 13 13 13 12 11 11 10 11 12 12 11 9 8
12 13 13 12 10 10 10 9 10 9 9 11 13 16 17 18 19 19 18 16 13 12 9 11 10 13 15 16 16 16 15 14 13 14 13 10 13 14 13 16 17 16 16 16 14 14 14 14 14 13 11 11 12 11 11 10 11 12 11 11 10 8
13 13 13 11 9 10 11 11 8 8 9 9 10 13 14 16 17 17 19 18 16 14 12 12 11 11 11 13 16 16 15 14 14 14 12 14 13 14 17 15 15 16 16 15 17 17 16 15 14 14 12 12 12 11 9 10 12 11 9 10 13 11
12 12 13 13 11 11 11 10 9 8 8 9 9 11 14 14 15 15 16 17 18 18 15 12 12 10 12 13 14 16 16 16 15 14 15 15 12 13 14 18 19 16 15 16 16 15 16 15 14 14 15 15 14 13 12 12 13 13 11 11 12 13
12 12 13 13 10 9 10 11 9 8 7 7 8 10 12 14 14 15 15 15 17 20 20 17 12 13 12 14 15 15 15 15 14 13 15 14 12 12 14 14 14 17 17 16 16 15 13 17 15 13 14 17 16 15 15 14 14 14 14 14 13 12
17 15 13 13 11 9 9 10 10 8 8 7 9 10 9 11 13 15 16 15 17 18 19 20 17 13 13 14 14 15 14 12 12 11 13 13 14 14 10 11 13 13 16 19 20 18 16 14 16 16 14 13 14 15 15 14 14 13 14 13 13 14
16 15 15 14 12 10 10 10 9 9 8 9 8 10 11 11 11 13 15 15 15 16 18 19 17 15 14 14 14 14 14 13 11 11 11 12 14 14 16 13 10 13 15 14 15 17 17 16 14 16 18 17 14 13 13 13 14 14 12 11 10 12
20 18 16 15 13 10 9 9 10 10 10 10 8 8 9 10 11 13 14 15 15 15 16 17 18 16 13 12 13 12 12 12 12 12 12 11 13 14 13 16 18 14 13 13 14 15 17 17 17 17 15 14 15 15 14 13 12 13 14 12 12 12
20 19 17 16 14 12 11 10 11 11 11 12 10 8 9 10 11 12 13 15 15 14 16 16 15 16 15 12 12 12 13 13 12 12 11 12 14 14 15 13 15 17 15 14 14 14 13 14 15 15 16 16 15 15 15 14 14 12 11 13 12 12
21 20 18 16 14 13 14 12 11 11 13 12 12 11 10 10 10 12 13 14 15 15 14 14 15 14 15 12 12 13 13 13 13 13 12 11 11 14 18 18 14 11 15 16 16 16 15 14 14 14 15 16 14 13 15 15 15 15 12 11 13 13
23 20 17 16 15 15 15 14 14 13 14 14 14 13 12 10 10 11 13 13 14 15 14 14 14 15 15 13 12 14 14 14 13 13 12 13 16 11 8 13 17 17 16 16 16 16 16 16 16 18 22 19 17 16 15 14 14 14 13 12 11 11
20 19 17 18 18 17 15 15 15 15 14 14 14 14 14 9 10 11 12 13 13 14 13 13 15 15 14 13 12 11 13 15 14 13 13 13 11 13 12 10 14 18 18 17 16 16 16 16 16 25 26 27 26 19 17 16 14 14 15 15 13 13
21 20 20 19 19 19 17 16 16 16 15 14 13 14 14 9 10 11 12 12 12 12 13 13 15 16 14 12 12 12 12 13 14 14 13 13 15 13 11 13 11 13 15 16 15 16 16 16 19 26 27 27 27 23 17 16 15 15 14 14 17 15
20 20 20 19 19 18 18 17 18 17 14 14 14 14 13 13 12 12 12 11 11 12 12 12 14 16 15 12 12 11 11 12 14 15 15 16 14 13 14 15 15 12 9 12 16 16 15 14 20 25 28 27 27 26 20 14 15 15 15 14 13 14
26 24 22 25 26 25 20 18 16 16 13 15 15 14 15 14 15 13 12 10 10 11 11 11 13 16 15 11 10 10 11 13 15 15 14 13 13 14 16 15 15 15 16 14 12 12 12 13 17 25 27 27 28 27 23 15 16 15 16 17 17 14
25 27 27 26 25 25 22 20 19 19 21 19 19 17 16 16 15 15 11 10 10 10 10 10 12 15 15 11 10 10 12 13 13 13 12 13 15 15 16 16 16 13 13 14 15 13 12 12 18 21 22 23 26 28 23 14 15 15 14 15 15 16
28 29 30 28 23 22 21 21 24 19 23 19 20 19 18 17 17 15 11 10 10 10 8 8 11 15 14 11 10 11 12 13 13 14 12 12 13 13 14 14 15 16 15 14 15 14 15 13 19 22 24 25 24 24 16 13 14 14 14 15 15 14
28 28 27 28 27 26 23 22 18 20 19 19 17 17 18 18 17 14 11 10 10 10 8 6 9 14 13 11 10 11 12 13 13 12 11 13 13 13 14 14 14 14 15 15 13 14 14 12 18 22 23 24 26 22 15 14 12 13 14 14 15 15
26 27 25 27 28 25 23 22 19 19 18 17 13 14 18 17 15 12 10 10 10 10 8 6 6 12 12 10 11 12 12 12 11 12 11 13 13 13 14 12 12 13 16 19 20 18 16 15 18 25 26 27 28 23 17 14 14 15 15 14 14 13
32 28 24 28 27 24 22 20 23 19 22 18 17 15 17 15 14 11 10 10 9 9 8 6 6 8 11 10 11 11 12 11 11 10 10 12 12 14 13 13 14 13 13 16 19 23 21 16 18 25 26 27 27 22 15 15 13 14 13 13 12 11
25 30 28 24 24 25 23 20 18 20 20 18 17 18 16 13 12 11 11 10 9 9 9 8 7 7 9 10 10 11 12 11 10 10 11 11 11 11 12 13 13 15 14 14 15 16 19 17 15 20 27 26 26 26 16 13 14 15 15 13 14 13
24 25 25 25 26 19 20 19 19 20 19 19 17 17 15 13 13 13 11 10 10 10 10 9 7 8 8 9 10 10 10 10 10 10 11 11 10 10 11 14 13 15 14 13 15 15 16 16 16 18 26 26 27 28 23 14 16 15 15 14 14 14
28 26 28 22 24 24 18 16 19 21 20 18 18 18 17 17 18 15 13 13 12 12 11 10 8 8 8 9 9 9 10 9 10 12 12 11 11 12 13 12 12 13 12 12 13 14 16 15 19 15 24 27 28 28 28 16 15 16 15 14 13 13
25 28 23 23 23 17 17 18 21 21 20 20 19 17 17 17 16 15 13 13 14 13 13 11 9 9 7 8 10 11 11 10 9 9 10 12 12 13 14 14 13 12 12 11 11 12 13 13 14 20 19 26 28 29 27 24 17 22 16 16 15 15
28 26 27 24 20 18 18 17 18 19 21 22 19 15 12 11 10 11 13 14 14 13 12 11 10 9 8 9 10 11 12 11 11 11 10 11 12 12 13 12 12 12 12 13 11 10 10 11 11 17 22 22 29 27 29 26 23 23 15 15 15 14
26 26 27 24 21 19 17 15 16 22 23 22 17 16 15 15 14 14 15 15 14 13 12 10 9 8 8 9 10 11 12 12 12 11 11 12 12 12 13 12 12 13 12 11 12 11 10 10 11 11 18 25 26 27 28 27 25 23 20 14 10 11
25 22 21 23 20 17 14 15 14 19 22 20 16 14 13 13 13 14 14 14 13 13 11 10 8 8 9 9 9 11 11 12 12 11 11 11 12 13 13 12 12 12 12 12 12 12 12 12 11 12 13 17 21 23 28 29 25 22 21 16 11 14
26 28 29 28 25 21 17 13 13 14 16 17 15 13 12 13 14 14 14 14 13 12 10 9 8 7 8 9 9 10 10 11 11 12 12 12 12 12 12 12 12 12 12 12 12 11 11 12 12 12 12 13 14 14 17 19 17 18 17 11 8 10
27 28 29 27 26 23 22 18 16 15 16 16 15 14 14 13 13 13 13 13 11 9 8 8 10 11 9 9 10 10 10 11 12 12 13 13 13 13 13 13 13 14 13 12 11 11 11 12 12 13 15 14 14 14 14 15 14 14 14 12 10 11
28 28 28 26 23 23 23 23 20 19 18 16 16 16 16 15 14 12 12 11 10 11 10 10 9 9 9 9 9 10 11 12 12 12 11 11 11 13 14 13 13 12 12 12 13 14 14 14 15 16 15 17 20 20 18 17 17 15 14 15 16 13
25 26 27 24 22 22 22 23 22 20 18 18 17 16 15 15 14 13 12 11 11 11 10 9 9 9 9 9 9 9 10 12 15 14 12 11 13 17 18 17 14 14 12 13 14 15 17 17 15 14 19 22 25 25 26 24 23 22 17 20 22 15
27 26 26 24 23 23 23 23 23 22 20 18 17 16 15 14 12 11 10 10 9 10 9 8 8 8 8 8 9 9 10 8 11 16 18 16 17 19 20 19 17 18 21 18 14 14 17 12 15 24 28 26 25 25 23 20 19 19 19 22 18 14
28 26 27 24 23 24 25 24 23 22 20 18 17 14 13 12 11 11 10 9 9 9 8 7 7 7 8 7 8 9 9 9 9 9 12 14 12 15 18 19 18 18 18 15 10 9 9 14 18 20 20 21 23 23 23 23 23 22 24 23 17 15
24 23 23 22 24 25 24 21 21 20 19 18 16 14 13 12 11 12 11 10 9 8 7 7 6 7 7 7 8 8 8 9 9 10 8 8 9 13 16 16 15 14 13 16 15 14 12 10 11 20 24 25 24 22 21 22 23 24 25 21 16 15
22 22 23 23 24 23 20 18 19 21 22 21 19 18 16 13 11 11 11 10 8 6 5 5 5 5 6 6 6 7 7 7 7 8 9 10 8 5 7 12 15 14 13 14 16 12 12 14 16 19 21 23 25 25 22 20 17 21 23 21 18 16
20 20 22 24 23 21 20 21 22 22 22 21 21 19 17 16 12 8 8 12 8 2 1 2 3 3 4 5 5 5 6 6 5 6 8 9 9 9 7 6 6 8 10 9 11 13 14 16 17 19 20 21 22 24 26 22 14 14 15 14 10 9
19 19 20 21 21 22 21 21 22 22 21 22 21 18 18 16 14 11 7 6 6 4 3 3 4 4 4 4 4 4 4 4 4 4 5 5 5 5 6 5 5 5 8 13 10 14 15 17 20 21 23 23 24 25 28 19 16 15 15 16 15 13
Wind_Direction
328 327 324 319 310 307 308 308 312 316 325 325 328 333 332 331 326 311 285 280 273 262 240 221 218 225 214 204 205 199 204 201 195 194 192 185 182 185 187 192 189 186 189 190 193 186 183 188 189 184 184 180 184 184 185 182 178 177 179 184 179 178
318 319 318 312 306 306 308 310 310 316 323 327 328 329 336 337 333 324 306 288 278 270 273 268 235 220 222 208 204 205 204 203 198 194 193 187 181 187 184 187 193 188 184 194 188 188 188 185 186 187 185 181 185 181 184 182 180 183 183 179 182 167
310 315 313 304 295 294 296 297 304 306 313 323 326 329 331 334 331 326 321 307 290 281 255 238 232 234 217 213 208 204 205 200 199 198 195 188 183 177 186 189 192 193 189 188 186 194 188 188 185 186 183 185 183 180 183 175 180 187 187 172 176 172
307 314 311 303 290 291 295 295 294 300 309 317 322 325 329 332 329 326 322 318 308 295 276 260 236 221 233 226 205 208 201 197 199 198 187 191 195 184 181 189 193 196 192 187 192 191 189 189 188 180 178 183 184 181 179 174 178 185 185 173 176 174
303 307 306 299 286 282 286 289 288 292 300 309 316 321 324 326 319 317 318 323 323 316 304 280 257 230 208 224 228 208 201 197 197 192 193 194 186 184 190 187 186 191 189 192 195 192 190 189 187 185 182 184 184 182 183 181 180 181 179 181 185 178
301 308 308 301 289 276 276 277 277 277 282 294 302 312 318 321 320 315 317 322 324 324 318 303 265 240 216 207 216 221 207 199 193 187 193 188 182 188 184 185 191 185 189 191 196 195 197 186 185 188 190 187 185 187 186 183 185 184 184 186 185 178
307 308 301 296 284 271 269 272 275 277 284 288 297 301 308 316 318 317 316 319 321 324 325 314 289 244 225 213 212 212 211 204 194 187 192 186 186 182 181 183 180 190 194 190 190 189 191 199 186 182 191 195 189 186 186 183 182 184 185 187 184 177
299 296 295 292 282 267 269 272 272 278 283 288 292 298 307 314 317 316 312 312 315 318 321 321 302 258 229 217 212 211 204 200 195 190 192 189 194 187 182 183 187 188 194 199 192 188 189 187 190 189 188 191 188 187 188 185 181 180 181 182 185 183
296 295 292 289 282 268 262 273 283 286 292 294 291 290 296 305 311 312 308 305 307 310 314 316 312 281 242 224 209 202 203 200 194 190 191 191 189 183 193 190 185 189 194 194 190 194 188 188 191 189 191 191 188 185 184 185 188 183 179 182 183 183
292 291 290 288 284 275 266 270 280 290 296 298 297 294 295 298 304 309 308 306 303 303 306 309 308 297 263 229 212 200 197 196 195 193 189 186 188 188 184 193 198 188 188 192 191 195 193 193 194 192 190 188 188 183 185 181 180 184 186 178 176 180
291 289 287 284 280 276 273 275 281 292 298 298 299 299 294 294 298 305 305 304 300 296 300 304 305 299 278 249 214 199 197 194 190 190 182 180 201 198 189 181 183 198 194 191 192 192 189 186 196 196 188 182 183 186 186 183 180 175 179 182 175 174
290 286 283 280 277 276 278 278 284 292 296 300 302 301 300 296 291 299 302 300 296 294 295 299 297 293 281 250 222 204 194 190 188 180 181 189 184 190 205 189 181 186 200 199 196 192 189 190 192 194 193 184 180 181 185 184 184 177 170 173 176 175
286 284 279 278 281 280 276 279 285 289 291 293 296 298 299 290 290 295 297 295 293 289 290 296 298 294 279 250 223 210 197 188 183 183 181 177 180 179 176 197 197 190 193 201 197 193 193 192 194 191 190 190 187 181 181 181 182 180 176 174 175 176
292 292 289 288 287 285 281 283 286 288 289 290 292 297 295 284 282 287 289 287 287 284 284 290 296 294 280 249 227 207 199 190 182 183 182 177 174 175 173 178 201 204 195 196 200 198 195 195 193 190 191 190 187 185 183 181 178 177 181 183 179 177
320 319 314 307 303 299 296 295 293 290 289 292 295 297 292 289 287 285 283 285 282 280 279 284 294 294 281 249 227 209 195 188 184 183 182 183 181 170 176 189 183 194 208 202 198 202 199 199 192 191 192 190 187 185 180 182 178 175 178 178 186 180
308 307 306 305 308 309 311 309 305 301 303 302 301 296 292 292 291 286 284 283 281 276 275 283 294 294 280 253 227 209 195 188 188 183 180 177 174 180 183 182 192 192 187 194 204 205 200 201 195 193 191 191 189 185 182 180 176 179 179 180 181 181
306 305 301 297 294 289 289 290 293 303 300 299 296 293 292 290 288 285 281 279 277 272 271 282 297 293 278 251 225 207 199 194 191 181 176 173 178 183 185 185 187 191 195 192 189 194 203 205 195 193 193 193 189 186 183 181 179 178 182 184 183 180
315 313 310 305 301 299 293 285 286 283 282 285 285 288 288 286 282 277 275 272 271 268 264 279 300 294 275 249 223 208 202 197 190 184 178 177 182 184 183 187 185 186 190 194 193 194 200 200 194 195 192 189 189 185 183 181 179 180 180 181 183 183
304 304 305 305 307 307 304 300 292 284 277 276 274 280 281 278 273 270 268 265 269 267 262 271 297 293 268 245 222 210 205 198 194 187 174 176 181 183 189 189 187 185 182 185 195 197 199 199 195 192 191 191 188 182 185 179 179 180 181 183 181 182
299 298 299 299 298 298 298 298 297 290 280 275 279 277 274 268 265 266 264 265 265 262 257 262 284 287 266 237 223 213 206 200 193 185 178 180 179 184 188 185 188 187 187 188 191 196 201 201 195 193 193 191 188 184 182 180 181 183 183 182 181 180
302 294 293 297 294 294 295 296 295 290 284 281 280 273 269 265 268 266 263 263 261 256 248 251 257 267 262 238 223 214 208 200 194 188 183 186 182 185 182 185 187 188 190 192 194 192 193 197 194 194 194 192 188 184 181 179 181 180 183 177 177 178
300 302 295 292 292 298 296 295 292 289 285 277 268 262 260 263 268 268 265 264 259 252 244 239 238 242 248 240 225 215 210 200 190 184 184 189 187 185 183 187 189 187 191 191 194 195 196 194 192 194 193 191 188 184 181 181 180 185 180 177 173 171
296 303 296 296 295 290 294 291 291 288 287 286 282 270 270 276 276 273 269 266 262 254 246 236 225 227 233 232 223 215 209 200 193 184 186 186 189 186 187 189 192 191 192 187 190 194 198 196 188 190 189 188 187 186 181 184 187 182 177 178 176 177
301 298 302 286 299 295 289 288 289 293 290 279 270 272 274 269 271 271 269 268 263 257 249 239 224 216 220 223 219 214 212 211 196 185 183 186 187 189 192 191 193 195 194 190 189 193 194 194 188 181 189 187 187 187 185 183 187 180 174 175 179 178
302 303 298 301 296 295 292 289 287 284 283 280 279 271 265 263 259 258 262 266 264 257 251 245 226 215 207 211 211 211 213 203 198 196 185 184 188 191 192 192 194 194 193 189 190 192 191 187 187 182 185 188 187 188 188 186 182 181 178 177 178 183
311 310 306 301 298 294 292 289 286 285 283 280 280 276 268 263 259 264 265 264 259 254 252 246 233 221 207 206 205 207 209 206 198 190 190 189 188 190 194 196 193 194 193 191 188 188 187 185 181 185 184 186 187 187 188 188 187 184 184 180 180 181
310 311 309 305 300 296 290 283 281 287 283 278 274 268 262 257 256 258 258 255 251 249 249 241 229 224 214 210 202 204 206 205 195 196 193 187 191 192 193 194 191 194 195 190 188 185 182 180 180 181 187 186 187 187 188 190 189 188 181 181 185 175
313 302 297 301 303 296 288 286 282 287 287 284 276 266 260 257 256 253 250 250 248 248 243 239 235 229 227 218 207 206 202 199 193 194 188 189 192 192 193 191 190 194 192 193 190 184 182 177 176 181 183 187 187 188 190 190 190 185 184 182 175 181
331 330 327 321 320 319 310 285 281 276 283 291 291 282 269 262 256 255 253 250 251 246 238 237 244 240 229 222 217 210 204 197 192 192 192 190 191 193 193 191 188 190 193 194 189 184 179 180 181 179 179 183 184 188 189 189 190 181 175 172 145 144
330 329 328 327 328 328 327 324 318 315 318 313 309 304 297 284 269 260 256 254 250 247 242 245 240 238 230 217 212 212 209 200 193 194 197 193 191 190 193 191 190 190 190 190 183 180 183 186 186 185 181 180 178 180 180 185 182 179 181 169 157 153
328 328 328 325 325 327 325 325 325 326 326 325 323 322 317 307 290 272 264 261 258 257 254 250 244 231 225 214 212 213 209 200 196 197 199 200 192 193 192 192 193 189 186 184 184 184 191 192 194 197 183 179 180 179 179 183 187 183 178 173 152 137
327 327 327 326 326 326 327 325 323 323 324 323 320 316 308 302 297 289 273 262 258 257 253 247 238 225 216 209 204 210 216 214 201 189 193 201 204 203 198 189 192 188 183 190 198 193 192 197 196 157 171 186 188 187 186 186 180 177 171 159 151 143
330 329 329 328 329 326 325 324 321 320 320 316 310 303 296 294 294 287 281 272 260 252 247 241 233 218 211 203 197 199 203 203 214 204 197 195 192 197 205 205 200 185 190 192 195 201 202 177 154 173 187 185 184 185 183 178 175 171 159 146 139 151
330 332 331 331 329 329 323 320 317 313 310 306 298 294 289 287 284 285 282 279 271 265 253 240 224 208 202 197 188 190 191 197 193 202 205 204 202 208 207 203 197 195 196 196 192 176 199 186 176 174 176 179 181 180 178 176 173 168 162 160 151 158
331 330 328 328 325 323 316 313 307 308 307 305 305 303 299 291 284 279 279 276 273 267 253 230 206 196 192 184 181 179 185 190 189 187 184 198 193 191 199 203 201 193 185 191 194 184 180 182 166 170 173 175 176 177 178 174 171 167 162 147 164 183
330 329 325 323 320 314 310 307 316 325 325 322 321 316 303 289 271 266 270 279 279 269 242 207 185 176 176 177 170 169 174 182 186 182 173 172 167 159 193 200 198 191 177 181 186 177 164 162 164 173 175 175 171 168 166 164 167 167 164 170 185 185
328 322 324 326 324 323 330 331 332 329 328 326 323 316 313 316 313 295 279 274 273 240 187 149 141 130 137 130 140 153 157 168 162 163 169 176 178 175 165 162 180 189 169 167 178 172 160 156 159 166 168 169 168 162 155 146 147 160 179 195 207 198
331 328 330 335 341 340 337 336 335 331 331 330 324 322 332 331 343 346 351 8 23 34 41 56 61 79 90 101 111 110 122 112 124 136 144 138 156 161 149 130 150 152 160 150 160 165 161 157 160 163 163 164 163 160 152 157 171 174 182 189 194 193